Temp
3 3 3 3 3 3 4 4 4 3 2 2 2 2 3 3 4 4 2 2 2 -1 1 2 2 2 1 -0 -1 -1 -1 0 0 1 2 1 2 0 1 4 3 3 3 2 2 3 2 2 3 3 2 1 0 -2
3 4 3 3 3 2 2 2 2 2 2 2 2 2 2 2 3 4 3 2 2 1 0 2 2 2 2 2 -1 -2 -1 0 2 2 -1 -2 1 -2 -3 1 3 2 4 4 4 4 2 1 2 1 1 1 -1 -4
4 3 2 2 2 2 2 2 2 2 2 2 2 2 2 2 2 2 2 2 2 -3 -2 -0 1 2 2 2 2 -2 -2 1 1 1 1 1 1 -3 -0 -1 0 2 0 0 2 3 1 1 1 2 2 1 -2 -2
3 2 2 2 2 2 2 2 1 1 1 1 2 2 3 2 1 2 2 2 1 -1 -5 -1 2 2 2 1 1 1 0 -1 -1 -0 -1 -1 -0 -1 -2 -1 -1 0 1 2 2 1 1 1 1 2 -0 -1 -1 0
3 2 2 2 2 2 2 2 1 1 1 1 1 2 3 3 2 1 1 1 1 0 -2 -2 1 1 1 1 0 -2 -2 -1 -1 -1 0 -0 -5 -4 -6 -4 -6 -2 -0 -1 -0 2 1 1 1 1 0 -0 -1 -4
2 2 2 2 2 2 1 1 1 1 1 1 1 1 2 2 2 1 -1 1 1 1 -5 -3 -1 -0 -0 -1 -3 -2 -1 -1 -1 -3 -1 -8 -6 -1 -2 -1 -3 -4 -2 1 1 1 1 1 0 0 -1 -2 -3 -5
2 2 2 2 2 2 2 1 1 2 2 1 1 2 2 1 1 1 -1 -1 0 1 -5 -5 -4 -2 -1 -2 -2 -2 -2 -2 -1 -2 -5 -8 -5 -1 -4 -1 -2 -5 -5 0 -0 -1 -1 -0 -2 -2 -3 -4 -5 -6
2 2 2 2 2 2 2 1 1 2 2 2 2 1 0 0 -0 -0 -1 -1 -1 0 -0 -2 -3 -4 -2 -4 -4 -2 -2 -2 -7 -4 -7 -3 -6 -2 -2 -6 -10 -10 -6 -3 -3 -4 -3 -4 -4 -6 -6 -7 -10 -12
2 2 2 2 2 2 1 1 1 1 2 2 1 -0 -0 -0 -2 -2 -2 -2 -2 -2 -3 -2 -6 -5 -4 -5 -8 -4 -2 -2 -5 -3 -5 -3 -7 -3 -4 -8 -11 -10 -6 -3 -6 -5 -5 -6 -9 -10 -12 -13 -12 -14
2 2 2 1 1 1 0 1 1 1 2 2 1 0 -8 -2 -2 -2 -2 -2 -2 -2 -3 -2 -4 -2 -5 -6 -6 -7 -7 -3 -2 -6 -4 -5 -6 -11 -13 -12 -13 -12 -6 -8 -5 -4 -7 -7 -8 -10 -14 -14 -13 -13
2 1 0 1 1 1 0 0 1 1 2 1 -1 -6 -1 -2 -3 -4 -3 -4 -4 -3 -2 -2 -5 -6 -6 -5 -5 -7 -7 -8 -4 -6 -5 -8 -7 -9 -15 -15 -16 -16 -10 -6 -6 -6 -7 -8 -9 -10 -12 -11 -11 -11
2 2 1 1 1 1 1 1 1 0 0 -0 -1 -1 -2 -4 -7 -7 -10 -8 -7 -5 -5 -6 -5 -5 -6 -4 -2 -9 -7 -9 -6 -8 -6 -8 -8 -14 -15 -8 -11 -11 -9 -10 -8 -9 -9 -10 -10 -11 -12 -11 -11 -11
2 2 1 1 1 1 1 1 0 0 0 -1 -2 -6 -4 -8 -6 -6 -6 -7 -6 -5 -6 -5 -5 -5 -5 -3 -7 -7 -4 -6 -7 -6 -5 -7 -12 -15 -13 -10 -13 -9 -9 -9 -9 -10 -10 -11 -11 -11 -11 -11 -12 -12
2 2 2 2 2 1 1 1 0 0 0 -7 -5 -5 -7 -10 -8 -4 -4 -4 -4 -6 -7 -8 -5 -4 -5 -3 -5 -4 -6 -6 -6 -4 -6 -6 -8 -7 -10 -13 -11 -11 -11 -10 -10 -10 -11 -11 -11 -12 -12 -12 -12 -13
1 1 1 1 2 1 1 1 0 -0 -0 -5 -7 -5 -8 -9 -8 -5 -5 -5 -4 -5 -3 -3 -5 -5 -5 -2 -3 -5 -5 -7 -6 -5 -5 -6 -8 -7 -8 -9 -10 -11 -11 -11 -11 -12 -12 -12 -13 -13 -13 -14 -14 -14
1 1 1 1 1 1 1 0 -0 -1 -2 -3 -4 -4 -10 -5 -7 -8 -5 -3 -3 -3 -3 -3 -2 -3 -3 -4 -4 -4 -7 -7 -6 -6 -7 -8 -8 -8 -8 -9 -10 -11 -11 -12 -13 -13 -13 -13 -14 -14 -15 -15 -15 -15
1 1 1 1 1 1 0 1 -1 -2 -2 -3 -3 -9 -8 -10 -6 -4 -3 -2 -3 -2 -2 -2 -2 -2 -4 -3 -3 -6 -7 -7 -8 -8 -9 -10 -10 -10 -10 -11 -11 -12 -12 -13 -13 -14 -14 -14 -15 -15 -16 -16 -16 -16
1 0 0 1 1 0 0 0 -1 -1 -2 -5 -5 -4 -7 -5 -5 -5 -4 -6 -3 -2 -2 -2 -2 -2 -2 -2 -4 -10 -10 -10 -9 -10 -11 -12 -12 -12 -12 -12 -12 -13 -13 -13 -14 -14 -14 -15 -15 -16 -16 -17 -17 -17
1 0 0 0 0 -0 -1 -1 -1 -1 -3 -10 -9 -9 -5 -3 -3 -1 -1 -1 -2 -2 -2 -2 -3 -9 -10 -11 -12 -12 -13 -13 -13 -11 -12 -13 -14 -14 -14 -14 -13 -14 -14 -15 -15 -15 -15 -16 -17 -17 -17 -17 -17 -18
-0 -1 -1 -0 -1 -1 -1 -1 -2 -2 -4 -5 -9 -6 -4 -5 -5 -6 -6 -6 -4 -7 -13 -12 -12 -12 -13 -13 -14 -14 -14 -15 -14 -13 -13 -14 -15 -15 -15 -15 -15 -15 -15 -16 -16 -15 -16 -17 -17 -17 -17 -17 -18 -18
-1 -0 -1 -1 -1 -0 -2 -3 -2 -6 -4 -3 -6 -5 -4 -6 -8 -9 -11 -12 -14 -14 -13 -13 -13 -13 -15 -15 -16 -16 -16 -16 -17 -16 -15 -16 -16 -16 -16 -16 -17 -16 -17 -17 -17 -17 -17 -17 -18 -18 -18 -18 -18 -19
-1 -2 -2 -1 -1 -2 -2 -5 -4 -5 -5 -4 -5 -5 -5 -6 -8 -10 -12 -14 -14 -14 -14 -14 -13 -13 -14 -16 -17 -17 -18 -17 -18 -18 -17 -18 -17 -17 -17 -17 -18 -18 -19 -18 -18 -18 -18 -18 -18 -18 -18 -19 -19 -19
-3 -3 -5 -6 -6 -6 -5 -5 -7 -7 -7 -8 -10 -9 -10 -10 -10 -12 -15 -16 -15 -15 -15 -15 -15 -15 -16 -16 -17 -18 -18 -19 -19 -19 -19 -19 -19 -19 -19 -19 -19 -20 -20 -20 -19 -19 -19 -18 -18 -18 -19 -19 -20 -20
-4 -8 -11 -12 -15 -11 -13 -13 -15 -13 -12 -14 -16 -15 -12 -15 -17 -20 -20 -18 -16 -15 -15 -16 -16 -17 -17 -17 -18 -18 -19 -19 -19 -19 -19 -20 -21 -20 -21 -21 -21 -21 -20 -21 -21 -20 -20 -19 -19 -19 -20 -20 -20 -21
-8 -13 -15 -16 -20 -15 -16 -16 -17 -16 -18 -21 -17 -16 -17 -20 -20 -22 -19 -17 -17 -18 -18 -17 -17 -18 -23 -24 -18 -18 -18 -19 -19 -21 -18 -19 -20 -21 -21 -21 -21 -20 -20 -21 -20 -20 -20 -20 -20 -20 -20 -21 -21 -20
-15 -17 -15 -20 -20 -16 -19 -17 -19 -18 -21 -22 -21 -23 -26 -23 -19 -17 -18 -19 -20 -23 -21 -21 -22 -22 -21 -19 -20 -18 -17 -18 -19 -20 -19 -19 -20 -22 -23 -23 -23 -22 -19 -20 -21 -21 -21 -20 -20 -20 -20 -20 -19 -19
-15 -18 -21 -17 -20 -20 -19 -18 -18 -21 -21 -19 -22 -22 -24 -21 -21 -18 -19 -17 -19 -15 -16 -17 -18 -19 -19 -17 -17 -17 -17 -18 -19 -19 -19 -19 -19 -20 -21 -23 -23 -20 -20 -20 -20 -20 -21 -21 -21 -21 -21 -20 -20 -20
-20 -20 -18 -21 -21 -23 -21 -23 -22 -20 -21 -21 -21 -21 -19 -19 -16 -19 -18 -15 -15 -16 -17 -17 -18 -18 -18 -17 -17 -17 -17 -17 -18 -18 -18 -19 -19 -20 -20 -20 -20 -21 -20 -20 -20 -20 -20 -20 -20 -19 -20 -20 -20 -19
-20 -21 -21 -21 -27 -26 -23 -19 -20 -20 -19 -20 -20 -20 -19 -19 -17 -16 -14 -15 -16 -17 -18 -17 -17 -17 -17 -17 -17 -17 -18 -19 -20 -24 -23 -21 -21 -20 -19 -20 -19 -18 -18 -19 -18 -19 -19 -18 -17 -17 -18 -19 -19 -19
-22 -25 -23 -28 -22 -19 -19 -21 -23 -25 -22 -24 -24 -23 -22 -21 -15 -14 -15 -16 -17 -17 -16 -17 -17 -17 -17 -17 -18 -17 -16 -17 -18 -19 -21 -20 -20 -19 -19 -18 -18 -18 -18 -19 -19 -19 -18 -19 -19 -19 -19 -20 -20 -20
-26 -27 -24 -26 -22 -23 -27 -26 -26 -26 -27 -32 -29 -28 -26 -25 -20 -16 -15 -15 -15 -17 -18 -18 -17 -16 -18 -18 -20 -21 -21 -16 -17 -18 -19 -19 -19 -19 -18 -18 -17 -18 -18 -19 -19 -19 -19 -20 -20 -21 -21 -21 -21 -20
-24 -25 -24 -21 -21 -27 -27 -30 -32 -31 -32 -31 -29 -33 -29 -28 -25 -19 -14 -14 -15 -17 -15 -16 -17 -15 -13 -14 -14 -15 -17 -17 -18 -18 -18 -19 -18 -18 -17 -17 -17 -17 -18 -19 -19 -20 -20 -20 -21 -21 -21 -21 -21 -22
-26 -29 -31 -28 -24 -22 -26 -28 -28 -27 -29 -29 -27 -28 -27 -25 -22 -19 -14 -13 -13 -12 -12 -12 -12 -13 -13 -14 -15 -15 -15 -16 -17 -18 -17 -17 -17 -17 -16 -16 -17 -17 -19 -19 -20 -20 -21 -21 -21 -22 -22 -22 -22 -22
Height
870 870 870 870 870 869 866 864 863 860 859 857 854 851 848 844 841 840 840 837 837 842 844 843 843 844 845 848 854 847 846 843 842 845 838 840 832 836 832 815 818 822 820 824 816 810 818 800 800 801 805 809 812 820
873 873 873 874 873 871 869 869 867 864 862 859 857 853 851 848 845 842 841 840 839 839 843 842 842 843 843 843 847 847 848 846 841 841 848 849 839 848 850 838 814 825 807 806 805 802 803 804 800 806 804 808 813 820
876 877 878 878 876 874 873 871 869 867 863 861 859 855 852 850 848 845 844 841 840 842 844 843 842 842 842 842 842 850 848 844 843 845 844 842 840 844 840 838 825 811 811 817 807 802 805 806 805 807 806 808 812 817
881 882 881 879 878 877 875 873 870 867 865 863 860 856 853 850 848 846 846 845 844 846 857 845 840 840 841 841 841 841 843 844 845 845 848 846 839 831 835 823 823 813 809 804 803 805 806 808 805 803 808 810 811 813
885 885 883 882 880 878 875 872 870 867 865 861 858 854 851 849 848 848 848 848 847 849 854 846 839 837 837 839 840 841 843 843 843 845 841 838 841 839 834 830 832 810 805 812 804 791 794 802 803 804 807 810 811 812
888 886 885 883 880 878 876 873 870 867 863 860 856 852 850 848 847 848 849 850 848 848 851 854 839 836 837 836 837 839 841 842 841 842 836 842 832 827 828 819 806 803 798 793 792 792 794 797 801 804 806 809 811 811
889 887 886 884 881 879 876 873 870 866 862 858 854 851 849 847 847 848 850 850 848 848 853 858 848 835 835 836 837 838 839 839 838 837 838 840 833 823 827 811 799 801 800 793 791 794 800 800 804 804 806 810 811 812
890 889 886 884 881 878 875 872 868 864 860 856 852 849 849 848 847 848 847 846 846 847 848 852 849 843 835 838 841 837 837 837 839 835 835 827 829 820 815 807 810 805 800 796 795 797 798 802 801 807 808 810 813 813
890 887 885 883 881 877 874 871 867 863 859 854 850 847 847 847 847 848 846 845 845 848 850 847 859 855 834 837 841 838 835 834 835 831 833 825 831 816 802 808 810 805 800 795 801 801 802 805 810 810 811 813 811 811
888 887 885 882 879 876 873 870 866 861 857 852 849 848 851 848 847 848 844 845 844 843 844 840 840 838 837 841 841 846 843 834 827 834 825 826 820 808 806 803 803 801 798 800 799 799 806 807 806 808 811 810 806 807
887 885 882 880 877 874 871 868 865 860 857 855 852 852 850 847 846 847 846 849 847 845 837 833 837 841 833 841 844 843 848 848 835 837 832 836 820 806 804 803 800 798 798 797 795 795 797 799 802 804 805 806 804 804
885 883 881 878 876 873 870 867 864 861 859 858 856 851 848 848 851 859 865 859 855 846 837 838 834 833 833 830 833 846 848 854 844 835 835 837 809 807 804 797 797 796 797 797 797 798 799 800 802 801 799 800 799 800
885 882 879 876 873 870 868 865 863 860 857 852 852 854 853 858 860 858 857 856 851 835 832 831 833 830 832 832 841 841 835 843 833 833 825 812 805 801 797 794 796 795 797 798 799 799 798 798 799 798 799 798 798 800
881 878 875 872 870 867 865 862 860 859 857 859 862 861 859 871 859 843 839 837 830 833 834 833 830 828 828 829 832 831 830 829 833 819 821 795 786 783 785 788 790 793 797 799 801 802 803 802 800 800 801 800 800 800
876 873 870 867 865 863 861 861 859 858 859 861 863 860 859 846 840 831 830 830 824 825 826 825 826 825 825 820 818 822 824 832 819 810 792 782 781 782 787 791 794 798 799 801 802 803 804 804 803 803 802 802 802 802
869 867 864 863 860 859 857 855 854 854 853 853 849 843 847 840 834 831 824 818 814 817 820 821 817 814 812 814 813 813 826 822 802 799 799 794 792 792 795 797 800 802 803 805 806 806 806 805 805 805 805 804 802 800
865 860 859 856 853 850 851 849 846 844 841 840 831 831 832 832 823 814 810 805 806 810 811 811 808 802 803 799 798 806 812 811 812 810 810 808 805 804 804 806 806 806 806 806 806 806 805 805 804 803 802 801 799 797
858 856 853 850 847 842 838 836 833 830 827 828 827 816 818 812 810 808 802 802 805 803 802 796 791 788 785 785 795 823 822 821 816 816 817 816 814 811 810 809 809 809 808 807 807 806 805 805 804 804 802 800 798 795
853 850 847 845 842 839 836 831 829 821 818 822 817 813 808 803 800 793 793 793 793 791 792 786 787 814 823 830 832 831 830 828 825 819 820 820 819 816 814 812 810 810 809 808 807 806 805 805 804 802 801 799 797 794
846 844 843 841 839 835 829 824 822 818 817 811 813 809 805 803 800 799 798 798 795 802 822 827 836 838 837 839 838 837 836 833 829 825 823 822 822 820 818 815 813 812 811 810 808 805 804 804 803 801 799 798 796 793
840 838 836 835 832 832 827 821 817 818 815 813 816 811 811 808 808 810 813 812 817 833 837 840 839 841 842 842 841 839 838 836 835 832 828 826 824 822 819 817 816 814 813 810 808 806 805 804 802 799 798 796 794 792
837 834 831 828 827 825 823 827 825 822 820 818 817 814 810 811 815 818 822 827 840 845 844 843 843 841 841 841 841 840 839 837 836 833 830 829 826 823 820 819 816 814 812 810 807 805 803 802 799 797 796 794 792 789
835 833 833 833 833 834 833 829 829 827 830 829 828 826 824 824 825 826 838 845 847 847 846 845 843 842 841 841 841 840 838 837 835 833 831 830 827 824 821 819 817 814 810 808 806 804 802 799 798 796 793 791 789 785
835 838 844 849 853 852 844 846 843 843 840 847 854 850 838 839 836 849 858 852 848 846 846 845 843 842 841 841 840 839 838 837 835 833 831 828 824 821 819 816 813 811 809 805 803 801 799 797 795 793 790 787 784 781
844 860 860 869 866 863 867 866 866 862 871 875 863 858 853 852 859 868 859 851 847 845 844 843 842 841 842 841 839 838 837 835 834 832 828 826 823 818 815 812 809 806 804 802 800 798 795 793 790 788 785 782 779 775
870 874 872 882 881 874 881 878 881 877 883 884 877 871 871 871 864 856 850 847 845 843 841 840 840 840 839 838 837 835 834 833 831 829 825 823 820 817 813 810 806 801 800 799 797 795 792 789 786 783 779 775 773 771
876 881 878 874 876 877 876 875 874 882 884 879 883 877 885 879 875 850 842 839 839 837 836 836 835 835 834 834 833 832 831 830 828 825 821 818 815 811 809 806 803 799 797 794 792 790 787 784 781 777 774 770 768 765
879 881 881 881 880 882 883 886 886 881 880 874 875 879 874 866 848 840 836 835 835 833 833 832 832 831 831 830 829 828 826 825 822 819 816 812 809 806 803 800 798 795 793 790 787 784 781 778 774 770 766 764 762 760
880 879 881 883 891 888 881 873 872 865 862 865 872 871 858 843 835 832 831 831 830 829 828 828 826 827 826 825 824 822 821 820 817 814 812 807 803 798 796 793 790 788 785 782 779 777 775 771 766 762 760 758 756 754
880 880 883 894 884 872 862 862 864 861 860 860 858 855 848 838 829 827 826 825 824 823 822 822 821 820 818 818 817 815 814 813 812 810 807 803 799 795 791 787 784 781 779 776 772 769 767 765 761 758 756 753 751 749
878 880 881 884 875 865 864 862 861 860 859 859 857 858 852 842 827 818 816 816 816 816 816 814 813 812 811 810 808 806 804 803 802 801 799 796 793 790 786 781 777 775 772 770 768 765 763 760 757 754 751 749 746 745
878 882 882 876 867 865 863 865 866 865 863 862 857 857 852 849 842 817 809 808 809 809 807 807 806 803 802 800 799 797 796 794 793 792 791 788 785 782 779 774 771 769 767 766 763 761 758 755 752 750 747 744 742 740
882 885 887 883 872 865 868 869 867 865 863 860 852 850 848 845 835 812 805 802 802 801 800 799 797 796 794 793 792 790 788 787 786 784 783 781 777 775 771 768 765 764 762 760 758 755 752 749 747 745 742 740 737 734
Wind_Speed
20 20 18 17 15 15 16 17 17 18 18 19 20 21 21 21 20 12 11 15 4 2 2 3 3 1 2 2 2 4 3 4 4 4 1 2 2 2 3 2 2 3 2 4 1 3 6 1 2 4 4 4 5 3
18 17 16 14 14 15 16 16 17 17 17 17 17 18 18 18 18 14 5 12 5 4 3 1 1 2 1 3 3 2 2 2 1 2 2 2 3 3 2 4 1 3 4 2 5 3 2 3 3 5 8 6 4 3
16 15 14 14 15 15 14 14 15 16 17 17 17 17 17 15 13 11 6 13 3 4 3 2 3 6 4 2 4 3 2 1 0 1 2 2 5 3 2 5 3 4 4 3 2 1 3 5 8 2 3 4 4 3
14 13 13 13 13 14 14 14 15 15 16 16 17 18 17 15 10 7 6 12 4 3 3 4 2 3 4 3 2 2 2 2 2 1 2 3 3 3 3 4 4 5 2 3 4 2 6 4 7 5 4 4 4 3
12 12 11 11 12 12 13 13 15 15 16 17 17 18 16 12 7 3 3 8 8 3 2 3 9 2 5 6 4 0 1 3 2 2 3 4 2 1 2 0 3 4 6 4 5 8 3 7 6 6 5 4 3 3
10 10 10 11 12 13 14 14 15 16 17 17 18 17 12 6 2 3 3 3 8 5 3 3 4 3 5 5 3 2 4 2 2 2 3 3 4 2 3 3 6 4 3 5 2 10 7 9 7 3 5 5 1 0
10 10 11 13 14 15 16 17 18 19 19 20 20 18 8 2 2 2 3 2 5 4 3 4 4 3 3 2 2 2 2 2 2 2 2 3 2 3 2 6 5 3 4 2 4 6 5 3 5 5 9 6 5 4
10 11 12 13 14 16 17 18 19 21 21 22 20 14 2 2 4 1 1 8 5 1 2 2 4 3 4 1 1 2 2 1 2 2 2 2 3 2 4 6 5 4 3 4 7 5 4 6 10 5 5 3 2 2
12 13 14 15 16 17 18 19 20 22 23 23 18 6 2 2 1 1 12 7 4 3 3 2 3 3 1 1 1 1 2 2 1 3 3 2 1 5 7 6 3 3 4 5 5 6 7 6 4 1 3 3 3 1
14 15 15 16 17 18 18 19 21 23 22 18 7 2 3 1 10 10 1 1 0 0 1 3 1 3 3 1 2 2 1 2 2 3 2 2 4 5 6 6 5 5 3 3 4 4 4 3 2 2 3 5 3 2
17 17 17 17 18 19 19 19 21 21 10 8 8 1 6 12 0 3 1 1 0 2 3 4 4 2 1 2 3 1 2 1 2 4 2 3 4 5 3 3 3 5 5 1 3 4 2 2 4 4 3 2 3 5
17 18 19 20 20 19 19 19 19 13 11 10 14 16 5 2 2 4 2 2 2 4 2 3 4 4 1 2 2 2 2 2 6 1 1 3 4 4 3 4 2 3 5 4 4 5 6 6 6 6 6 4 3 2
18 19 20 19 21 21 21 19 15 11 17 6 1 3 2 2 2 4 3 3 2 2 3 2 2 3 2 1 1 2 3 5 1 0 4 5 4 4 7 5 4 4 5 4 4 5 6 6 6 5 4 2 0 1
21 21 22 23 24 23 20 15 10 9 5 3 3 6 5 3 4 4 3 3 3 1 1 1 0 3 2 3 2 4 4 1 2 3 6 3 7 9 9 5 5 6 5 4 2 2 2 2 3 3 4 4 2 4
23 24 24 25 22 18 15 13 11 7 3 1 3 5 5 5 4 4 3 2 3 2 1 2 2 2 3 4 4 1 2 5 6 5 4 3 4 1 2 3 5 3 3 4 3 3 3 3 5 6 7 8 10 11
25 25 20 16 21 21 20 16 15 8 4 3 5 4 3 3 4 2 3 5 4 4 2 2 3 3 5 3 4 7 5 7 3 3 6 6 9 9 8 6 8 8 6 6 6 5 4 5 6 6 6 10 12 9
26 9 18 29 28 25 21 15 6 6 5 5 6 2 3 2 5 4 4 4 10 5 3 3 5 9 1 3 4 4 2 4 6 6 6 11 11 10 9 11 9 6 6 5 4 5 3 3 3 3 4 7 9 7
23 26 29 27 24 25 25 12 7 5 8 5 3 5 3 3 3 4 4 2 3 4 3 4 3 6 5 4 2 4 3 5 5 5 6 7 12 13 12 9 7 8 7 5 6 7 3 3 4 4 7 8 8 9
25 24 25 23 15 7 4 5 7 4 7 2 3 3 3 3 6 16 9 9 12 6 2 2 1 4 4 3 3 4 5 5 5 3 5 11 13 12 12 11 8 10 9 5 8 8 2 4 4 6 8 8 9 10
25 23 23 16 13 4 4 3 4 3 3 3 2 4 3 2 4 3 4 5 2 3 6 5 3 2 2 3 3 3 4 8 5 4 5 7 12 13 13 12 11 13 8 9 9 10 1 5 6 6 9 11 11 11
24 21 21 17 8 9 4 3 3 2 3 2 2 3 3 3 3 4 4 5 4 3 2 2 2 2 5 5 7 7 7 9 4 3 4 5 11 11 11 12 12 11 11 10 8 9 7 6 10 9 7 12 11 17
13 16 6 3 4 3 1 12 3 5 2 2 4 2 3 2 3 3 2 5 3 2 2 1 2 1 2 3 5 8 9 9 9 9 11 12 7 10 11 12 12 11 11 11 10 7 8 12 14 9 9 13 17 18
11 7 5 11 5 6 3 14 4 4 3 4 4 5 3 3 2 3 3 2 2 2 3 3 5 3 6 5 4 7 10 10 11 11 11 12 13 12 13 14 14 15 14 14 13 12 12 14 14 14 14 19 20 21
5 5 4 3 4 3 4 5 3 4 4 4 4 6 4 2 3 4 2 0 1 1 1 5 5 3 1 2 2 4 7 9 11 13 14 15 13 15 17 18 16 15 15 16 16 14 13 12 16 20 22 22 22 22
5 7 5 6 4 6 6 7 6 5 3 3 6 4 4 4 3 2 1 2 1 2 2 2 2 1 2 2 4 4 4 8 11 13 21 18 19 22 18 19 20 21 17 13 13 15 19 20 22 24 24 23 21 23
5 4 3 2 3 2 1 3 3 3 2 4 3 3 3 3 3 3 2 2 2 2 4 5 4 1 3 7 4 3 6 10 13 14 22 20 23 21 16 12 12 21 17 14 19 20 24 23 24 25 26 27 23 22
3 3 3 2 1 1 2 2 2 3 1 1 3 4 4 3 4 3 2 4 4 8 9 9 11 11 10 7 7 7 9 13 16 19 24 25 25 22 20 18 17 19 21 20 21 23 23 24 23 25 26 28 26 24
3 1 2 3 1 0 3 1 2 3 3 2 2 2 3 6 4 3 7 6 9 11 11 12 14 15 15 15 14 15 17 17 18 19 22 20 17 19 14 15 18 19 19 21 21 24 23 23 25 29 29 23 25 18
1 0 2 3 3 1 4 5 4 3 2 3 4 3 4 3 4 5 11 16 13 12 13 16 18 18 20 20 21 21 22 19 16 6 7 9 16 23 24 26 27 27 26 26 26 21 20 22 24 22 16 11 17 19
2 1 2 1 2 4 4 4 3 2 2 2 2 4 4 6 19 20 18 17 16 18 18 18 19 19 24 22 25 28 28 27 18 16 8 10 17 28 28 30 31 31 32 29 26 24 21 19 21 23 23 23 21 21
1 2 1 1 4 3 2 5 5 2 2 1 2 3 3 4 11 13 14 16 17 17 19 22 23 24 25 29 27 20 19 24 17 18 21 22 25 26 28 30 32 34 29 21 19 20 21 22 23 23 22 22 22 21
1 2 3 2 4 2 6 3 2 1 2 2 2 1 3 3 4 5 7 12 15 18 22 21 23 26 19 19 21 22 21 23 24 24 24 25 26 24 26 30 30 19 12 12 16 18 19 20 20 20 21 22 22 22
1 0 1 2 3 4 3 4 3 5 2 2 3 3 3 3 6 6 7 15 19 20 20 20 21 24 26 25 25 26 26 27 25 22 22 24 23 23 23 23 28 12 11 17 20 21 20 20 20 20 20 19 20 21
Wind_Direction
88 83 76 68 61 52 45 41 39 36 33 29 27 25 24 25 27 28 36 21 40 112 315 36 1 28 31 69 110 282 29 347 0 32 19 296 292 281 331 285 238 212 227 232 312 279 292 133 102 200 132 88 123 131
80 74 68 59 51 46 41 36 31 29 26 21 17 18 16 14 15 21 26 19 55 77 201 298 305 125 156 211 153 335 182 301 320 327 356 3 307 344 182 272 293 289 205 241 206 240 18 349 88 121 129 146 144 132
73 66 59 51 44 39 35 28 21 18 17 14 9 6 5 3 6 16 25 13 50 52 348 34 244 219 225 233 221 126 274 239 166 56 319 267 251 132 239 250 239 277 178 228 342 133 110 97 87 102 136 125 133 175
66 60 53 46 37 30 24 19 16 12 8 3 360 359 359 353 358 8 39 21 34 77 104 272 208 230 241 212 198 217 191 165 182 179 229 240 237 173 233 227 197 207 24 235 251 102 125 166 182 148 119 108 132 147
58 53 45 36 27 21 18 14 9 6 1 357 353 349 354 350 356 71 74 45 33 52 237 279 304 228 193 204 203 342 226 226 216 242 227 240 261 58 249 232 252 188 215 168 234 183 141 175 154 139 140 157 148 160
51 45 33 23 17 12 7 2 357 354 350 346 342 339 347 350 78 181 29 51 39 25 73 330 316 234 190 192 133 200 198 212 239 198 241 265 251 201 263 252 252 233 268 233 198 158 163 153 129 138 131 119 105 163
38 28 18 11 6 1 357 353 350 348 345 341 337 339 344 335 214 134 149 360 354 13 70 324 319 289 206 158 175 203 207 244 209 247 248 207 251 224 225 247 243 278 278 333 70 117 92 164 136 85 104 76 57 49
22 10 4 1 356 354 350 348 346 345 343 338 333 335 51 73 123 182 51 356 333 180 145 264 270 334 181 281 275 170 229 217 278 232 307 228 315 244 258 253 280 272 284 63 52 41 101 124 78 57 56 47 92 123
7 1 355 351 349 348 346 344 343 342 340 333 331 325 238 216 73 314 309 296 243 191 178 215 177 240 27 258 158 266 221 253 250 232 239 166 266 224 232 221 266 256 198 160 131 116 91 82 140 52 28 287 152 273
355 350 345 343 342 341 339 339 340 339 340 332 330 323 350 314 325 311 23 20 133 152 245 245 143 251 109 24 317 50 314 253 259 250 300 214 254 258 229 220 235 258 253 193 170 126 144 164 131 174 203 246 174 203
346 341 336 335 334 332 332 334 337 335 343 350 352 310 318 314 282 34 224 155 356 255 217 229 186 200 265 118 220 171 247 294 274 263 148 276 277 249 241 242 244 227 215 191 119 127 157 130 157 166 182 230 38 23
346 341 333 330 326 325 326 330 333 334 331 304 288 290 281 11 24 68 256 303 206 238 254 178 220 191 258 158 173 297 192 45 247 241 80 270 255 255 211 198 236 143 128 105 113 137 147 159 178 167 143 132 87 35
336 336 339 333 328 326 323 318 315 312 322 307 28 355 35 298 352 173 238 291 290 222 222 191 219 159 53 110 213 130 233 233 36 56 234 233 250 231 205 198 241 206 193 191 196 181 166 156 163 144 140 133 79 171
321 322 324 322 325 325 325 328 302 314 321 64 22 299 174 281 248 201 208 221 247 179 238 178 162 177 171 186 192 196 232 135 265 231 238 248 222 209 197 193 153 179 186 155 138 161 158 140 95 73 18 360 84 5
315 310 311 315 325 322 317 309 282 276 252 238 111 249 223 235 248 230 214 261 209 181 174 304 298 159 196 222 194 178 225 239 209 228 231 305 311 176 97 83 92 97 99 98 85 58 19 12 19 11 43 56 20 354
315 312 305 313 311 303 303 283 253 227 205 201 228 249 246 279 276 260 205 244 171 170 141 221 245 236 217 199 180 213 161 222 259 338 352 358 42 51 56 60 62 64 65 69 58 39 28 42 36 33 38 16 1 356
307 260 298 314 316 293 296 280 204 213 207 210 237 226 184 268 231 235 200 227 167 148 208 199 217 216 139 220 213 184 207 13 357 18 32 38 41 41 42 49 40 60 67 66 57 27 26 56 45 52 15 349 351 357
296 303 307 310 310 299 276 234 208 216 223 227 217 224 206 214 228 262 245 132 157 202 208 223 223 205 210 211 88 15 355 337 349 34 37 31 31 33 36 25 37 41 17 29 25 358 14 32 17 360 340 340 343 347
308 313 316 318 313 303 255 226 216 250 230 217 263 252 216 239 233 252 278 263 221 220 230 242 313 22 33 28 353 3 354 356 330 344 58 43 28 19 18 8 18 17 1 31 4 338 12 36 12 351 337 336 348 338
309 310 308 317 318 262 264 254 217 252 246 248 3 331 282 308 336 358 19 0 8 41 40 44 38 17 8 12 7 3 354 342 344 350 1 11 14 4 7 360 9 356 1 354 343 339 31 10 355 346 335 353 343 336
309 307 299 296 281 230 240 269 244 248 309 58 271 356 343 315 14 10 8 352 62 33 59 39 72 96 83 61 34 16 6 3 5 339 349 341 354 353 353 357 0 348 341 328 332 329 341 335 326 320 318 341 337 335
306 308 293 272 248 262 222 11 307 320 4 353 337 317 247 307 8 30 25 42 50 25 17 3 2 8 91 59 46 34 15 13 7 4 6 1 343 343 343 343 341 332 324 319 315 317 321 319 318 330 323 330 329 328
322 348 35 19 26 16 307 352 22 349 351 314 348 327 359 13 29 61 66 80 118 20 4 9 348 35 103 88 73 37 33 26 10 360 347 337 328 321 322 322 322 317 312 313 316 311 313 317 317 314 324 324 327 326
10 49 49 48 51 309 348 353 354 9 11 15 0 316 348 311 344 49 74 346 220 230 349 1 4 359 61 49 9 4 4 1 354 348 353 339 324 326 324 318 315 310 307 303 313 315 320 309 314 318 320 321 318 314
72 338 62 343 345 19 10 351 348 26 325 348 3 318 324 352 40 45 197 250 242 254 221 311 311 238 178 263 296 333 347 345 344 330 335 334 322 322 319 318 319 321 331 326 329 326 321 321 319 318 317 314 311 302
70 311 75 234 289 67 237 343 347 314 353 336 291 277 11 43 19 256 233 217 236 225 228 218 214 232 254 228 239 294 334 325 315 306 313 323 317 307 296 299 307 311 332 322 318 311 311 311 310 310 305 307 310 313
80 294 310 24 140 101 336 334 0 90 357 274 285 339 26 344 268 251 268 219 224 291 271 259 236 228 234 248 252 270 290 299 303 301 307 311 317 313 299 282 281 299 313 310 306 302 294 294 291 290 290 298 301 302
163 117 149 288 358 42 179 291 206 224 231 225 84 349 222 211 247 228 215 220 288 293 275 263 254 250 251 254 265 280 293 305 311 312 320 321 322 321 317 310 306 306 299 297 294 292 286 285 286 289 285 280 288 298
131 249 126 320 332 322 212 199 226 228 188 139 155 236 247 230 247 236 290 299 289 273 267 268 264 255 257 258 264 274 287 295 304 309 306 310 318 317 327 321 322 322 321 319 321 310 303 298 291 295 309 294 307 315
257 170 98 117 184 240 239 179 230 259 251 228 254 308 286 268 278 283 275 271 261 258 270 275 276 270 264 266 270 280 288 294 286 269 268 287 292 310 313 313 314 315 317 318 315 316 317 314 315 314 315 316 317 318
99 75 52 198 245 248 244 314 291 257 270 293 254 197 253 302 301 284 265 255 254 258 260 263 266 265 263 267 266 269 279 302 291 280 294 294 296 300 302 305 306 308 311 309 308 307 309 309 308 310 311 309 311 311
30 180 162 262 275 294 6 24 318 323 316 352 278 337 309 333 271 275 242 229 230 239 249 252 259 266 278 281 282 284 283 287 292 293 300 298 294 296 301 299 301 305 298 308 308 307 309 304 304 304 303 304 306 307
67 101 340 315 306 315 349 356 0 327 306 276 258 205 221 223 249 273 260 238 237 252 267 271 277 276 275 278 281 284 285 287 292 294 295 304 300 296 294 299 303 290 321 329 324 319 316 312 307 305 303 304 306 307